Roanoke, VA

4:00 PM EDT on October 16, 2019 (GMT -0400)
Roanoke Regional-Woodrum

Weather History for KROA - September, 2019

Change the Weather History Date:

Tuesday, September 17, 2019

  Actual Average Record
Temperature  
Mean Temperature 75 °F 68 °F  
Max Temperature 84 °F 78 °F 96 °F (1927)
Min Temperature 66 °F 57 °F 40 °F (2000)
Degree Days  
Heating Degree Days 0 1  
Month to date heating degree days 0 9  
Since 1 July heating degree days 0 10  
Cooling Degree Days 10 4  
Month to date cooling degree days 203 104  
Year to date cooling degree days 1566 1151  
Growing Degree Days 25 (Base 50)    
Moisture  
Dew Point 64 °F    
Average Humidity 71    
Maximum Humidity 87    
Minimum Humidity 55    
Precipitation  
Precipitation T in 0.15 in 5.23 in (1945)
Month to date precipitation 0.80 2.33  
Year to date precipitation 31.50 30.46  
Snow  
Snow 0.00 in - - ()
Month to date snowfall 0.0  
Since 1 July snowfall T  
Since 1 September snowfall 0.0  
Snow Depth 0.00 in    
Sea Level Pressure  
Sea Level Pressure 30.06 in    
Wind  
Wind Speed 7 mph (NE)    
Max Wind Speed 16 mph    
Max Gust Speed 20 mph    
Visibility 10 miles    
Events      
T = Trace of Precipitation, MM = Missing Value Source: NWS Daily Summary

Daily Weather History Graph

Daily Weather History Graph

Search for Another Location

Airport or City:

Astronomy

Sep. 17, 2019 Rise Set
Actual Time 7:03 AM EDT 7:24 PM EDT
Civil Twilight 6:37 AM EDT 7:50 PM EDT
Nautical Twilight 6:06 AM EDT 8:21 PM EDT
Astronomical Twilight 5:35 AM EDT 8:52 PM EDT
Moon 9:31 PM EDT (9/17) 10:02 AM EDT (9/17)
Length of Visible Light 13h 13m
Length of Day
12h 21m
Waning Gibbous, 89% of the Moon is Illuminated
Sep 17
Waning Gibbous
Sep 21
Last Quarter
Sep 28
New
Oct 5
First Quarter
Oct 13
Full

Hourly Weather History & Observations

Time (EDT) Temp. Heat Index Dew Point Humidity Pressure Visibility Wind Dir Wind Speed Gust Speed Precip Events Conditions
1:54 AM 70.0 °F - 64.0 °F 81% 29.99 in 10.0 mi Calm Calm - N/A   Clear
2:54 AM 71.1 °F - 63.0 °F 75% 29.99 in 10.0 mi Calm Calm - N/A   Clear
3:54 AM 66.0 °F - 63.0 °F 90% 29.99 in 10.0 mi NW 4.6 mph - N/A   Clear
4:54 AM 68.0 °F - 63.0 °F 84% 29.98 in 10.0 mi Calm Calm - N/A   Clear
5:54 AM 69.1 °F - 62.1 °F 78% 29.99 in 10.0 mi NW 8.1 mph - N/A   Scattered Clouds
6:54 AM 70.0 °F - 61.0 °F 73% 30.01 in 10.0 mi North 10.4 mph - N/A   Clear
7:54 AM 71.1 °F - 61.0 °F 70% 30.03 in 10.0 mi North 9.2 mph - N/A   Partly Cloudy
8:54 AM 73.0 °F - 62.1 °F 68% 30.05 in 10.0 mi North 9.2 mph - N/A   Clear
9:54 AM 75.0 °F - 63.0 °F 66% 30.07 in 10.0 mi North 8.1 mph - N/A   Partly Cloudy
10:54 AM 78.1 °F - 64.0 °F 62% 30.07 in 10.0 mi NE 5.8 mph - N/A   Scattered Clouds
11:54 AM 82.0 °F 83.4 °F 64.0 °F 54% 30.07 in 10.0 mi North 8.1 mph - N/A   Partly Cloudy
12:54 PM 81.0 °F 82.7 °F 64.9 °F 58% 30.06 in 10.0 mi Variable 5.8 mph - N/A   Overcast
1:54 PM 81.0 °F 82.7 °F 64.9 °F 58% 30.06 in 10.0 mi NNE 8.1 mph - N/A   Mostly Cloudy
2:54 PM 82.9 °F 84.6 °F 64.9 °F 54% 30.05 in 10.0 mi East 5.8 mph - N/A   Scattered Clouds
3:54 PM 82.9 °F 84.6 °F 64.9 °F 54% 30.04 in 10.0 mi ENE 10.4 mph - N/A   Mostly Cloudy
4:54 PM 79.0 °F - 66.0 °F 64% 30.03 in 10.0 mi SE 12.7 mph - N/A   Mostly Cloudy
5:54 PM 75.9 °F - 64.9 °F 69% 30.05 in 10.0 mi ESE 12.7 mph - N/A   Mostly Cloudy
6:54 PM 73.9 °F - 64.9 °F 73% 30.07 in 10.0 mi ESE 10.4 mph - N/A   Mostly Cloudy
7:26 PM 73.0 °F - 64.9 °F 76% 30.10 in 10.0 mi SE 11.5 mph - N/A   Overcast
7:54 PM 73.0 °F - 64.9 °F 76% 30.08 in 10.0 mi ESE 10.4 mph - N/A   Overcast
8:54 PM 72.0 °F - 64.9 °F 78% 30.11 in 10.0 mi ENE 10.4 mph - N/A   Overcast
9:51 PM 71.6 °F - 62.6 °F 73% 30.16 in 10.0 mi NE 8.1 mph - N/A   Overcast
9:54 PM 72.0 °F - 62.1 °F 71% 30.12 in 10.0 mi ENE 6.9 mph - N/A   Overcast
10:54 PM 71.1 °F - 62.1 °F 73% 30.13 in 10.0 mi East 6.9 mph - 0.00 in   Overcast
11:23 PM 71.1 °F - 62.1 °F 73% 30.17 in 10.0 mi ENE 6.9 mph - N/A   Overcast
11:54 PM 70.0 °F - 64.0 °F 81% 30.12 in 10.0 mi NE 3.5 mph - N/A   Overcast